Location: Antioch Church
(34.9543°N, 88.5145°W)
Time: 01:24:15
(UTC+00:00)

Cosmos 614 Rocket - Pass Details

Date: 11 December 2019
Orbit: 733 x 764 km, 74.1° (Epoch: 28 January)

Event Time Altitude Azimuth Distance (km) Brightness Sun altitude
Exits shadow 10:39:32 46° 193° (SSW) 989 4.5 -26.3°
Drops below altitude 10° 10:43:12 10° 174° (S) 2,251 6.6 -25.6°
Sets 10:45:34 0° 171° (S) 3,176 7.5 -25.1°
